Theta_e
296 288 286 284 288 291 293 292 292 293 292 292 290 289 288 288 288 291 292 294 294 292 289 291 289 288 290 292 294 297 298 296 295 295 294 294 296 296 295 294 294 294 294 295 295 294 294 294 294 294 295 295 295 296 296 297 297 298 300 300 300 301 303 304 308 308 307 307 305 306 306 307 307 307 308 311 310 311 309 310 310 311 313 312 312 312
295 288 287 290 293 294 294 294 293 292 291 290 289 288 287 287 288 291 292 295 294 291 286 286 289 290 291 293 296 298 296 295 294 294 293 295 296 295 294 293 293 293 294 294 293 293 293 293 293 293 293 294 293 293 294 294 295 296 298 299 299 300 301 301 301 304 305 305 305 305 304 305 304 305 306 308 308 308 309 307 308 308 308 309 311 310
288 287 291 294 295 295 294 294 293 292 292 291 290 287 286 288 289 291 292 293 292 292 288 286 289 290 292 294 296 296 295 294 294 295 295 296 294 294 294 293 292 292 291 292 292 292 292 291 292 292 292 292 293 293 293 293 294 295 296 297 298 299 299 300 300 301 303 304 305 304 302 303 303 304 304 304 304 306 306 306 306 306 307 307 307 306
286 288 293 296 295 294 294 294 293 292 292 289 288 286 286 288 287 284 288 291 293 292 288 288 288 289 292 294 295 296 293 295 296 296 295 294 293 292 292 292 291 291 290 290 290 290 290 290 291 291 291 291 292 292 292 292 292 294 294 295 296 297 298 298 299 299 299 301 301 302 303 303 304 302 302 303 303 303 304 304 304 303 303 304 304 303
290 294 297 296 294 294 293 293 292 290 287 287 289 287 287 287 288 287 288 291 290 291 290 289 288 286 290 292 292 292 295 295 295 295 294 294 294 293 292 292 291 290 290 289 289 289 289 289 289 289 290 291 291 291 291 291 291 293 292 294 294 295 296 297 298 299 299 300 301 301 300 299 297 297 299 298 298 299 299 300 301 302 300 302 302 302
292 296 297 295 294 292 291 290 289 290 286 286 288 291 291 290 290 289 289 288 283 283 286 288 281 279 286 289 290 293 292 293 293 292 292 292 292 292 291 291 291 291 290 289 289 289 289 289 289 289 289 289 290 290 291 291 291 291 292 292 293 294 295 295 296 297 298 298 298 298 297 297 294 296 296 295 295 298 300 301 298 300 299 299 300 300
293 295 295 295 293 291 291 289 289 291 286 285 287 292 292 290 289 288 287 286 279 279 286 290 281 277 285 289 291 294 290 290 291 291 291 291 291 290 290 290 290 289 289 289 289 289 288 288 288 288 288 288 289 290 291 291 291 291 291 291 292 292 293 294 295 296 297 297 297 296 296 295 295 294 295 295 295 296 297 298 299 299 298 299 300 298
293 293 291 292 292 290 289 288 290 292 287 284 287 289 289 288 288 288 286 286 282 283 286 289 286 280 279 285 292 291 289 288 289 289 290 290 290 289 289 289 289 289 288 288 287 288 288 288 287 287 287 287 288 289 290 290 291 290 290 290 291 291 292 292 293 294 294 294 295 295 295 295 295 295 294 296 296 295 295 296 297 298 298 297 298 298
294 289 290 290 289 287 288 289 291 292 288 286 289 289 289 289 288 287 286 283 282 282 279 281 286 280 278 283 289 289 287 287 287 288 288 289 289 289 289 289 288 288 288 287 287 287 287 287 287 287 287 287 287 288 289 289 289 290 290 290 290 290 291 291 292 292 292 293 293 293 293 293 293 294 295 294 296 296 295 294 294 295 296 296 296 297
293 292 291 291 288 287 289 288 292 293 290 291 290 291 290 289 288 288 284 284 281 280 275 280 284 278 279 284 286 287 286 285 286 288 288 288 288 288 288 288 288 288 287 287 287 287 287 287 287 286 286 287 287 287 288 288 289 289 289 289 289 289 290 290 290 290 291 291 291 291 291 291 292 293 293 293 293 293 294 294 293 293 293 294 294 295
293 294 295 294 291 291 289 290 289 292 291 292 289 286 284 284 284 283 281 280 279 274 277 282 284 284 276 282 286 286 287 287 287 288 288 288 287 288 288 287 287 287 287 286 286 287 287 287 286 286 286 286 287 287 287 288 288 288 288 287 287 288 289 289 289 289 289 289 290 290 290 290 290 291 291 291 291 292 292 292 292 292 292 292 292 292
291 291 292 291 296 293 291 290 290 290 290 289 284 282 284 281 279 281 276 278 274 272 277 280 283 285 276 278 283 288 288 290 290 288 287 286 286 286 286 286 286 286 286 285 285 285 285 286 286 286 286 286 286 286 287 287 287 287 287 287 286 287 287 288 288 288 288 288 288 288 289 289 290 289 290 289 289 290 290 290 290 291 291 292 292 292
285 288 288 293 294 294 289 288 287 285 287 285 283 281 277 274 275 272 275 272 272 274 278 281 282 281 282 285 287 292 288 288 290 291 288 286 286 286 286 286 285 285 284 284 284 284 285 284 284 284 284 285 285 285 285 286 286 286 286 285 285 286 286 286 287 287 287 287 287 287 287 288 289 289 289 289 289 289 289 289 290 290 290 290 291 290
282 283 290 290 292 293 291 286 282 284 284 283 282 279 276 272 271 267 268 271 272 275 280 281 284 279 282 285 288 287 288 288 289 288 288 287 286 285 285 285 285 284 283 283 283 283 283 283 283 283 284 284 284 284 284 284 285 285 286 285 285 285 285 286 286 286 286 286 285 286 286 287 287 287 288 288 288 289 289 289 289 289 289 289 289 290
277 279 284 289 286 292 292 291 288 283 282 284 283 284 280 275 271 269 270 271 272 274 277 280 279 274 276 281 287 287 287 287 287 287 286 286 285 285 283 284 283 283 282 282 283 283 283 283 283 283 283 283 284 283 284 284 284 284 285 284 284 284 284 285 285 285 285 285 284 284 285 285 286 286 286 286 287 287 287 288 288 288 288 288 289 289
283 282 285 292 291 291 290 292 292 286 284 284 284 283 280 281 280 276 277 274 273 275 275 275 278 278 281 286 287 287 287 286 287 286 286 285 285 284 284 283 283 282 282 282 282 282 282 282 282 283 283 283 283 283 284 283 284 284 284 284 283 283 284 284 285 285 285 284 284 283 283 283 284 285 285 285 285 285 286 286 286 286 287 288 288 289
284 279 288 292 291 289 289 291 293 290 279 284 286 282 283 284 286 280 279 278 277 276 276 278 280 282 284 286 285 286 285 285 285 285 284 284 283 282 282 283 282 283 283 282 282 281 281 281 281 282 281 282 282 282 283 283 283 283 283 283 283 283 283 284 284 284 285 284 283 284 283 283 283 283 283 283 283 283 284 285 285 285 285 286 287 288
282 280 287 287 288 291 288 290 291 290 288 284 282 282 284 289 286 283 274 275 275 273 274 279 275 278 280 275 284 283 283 283 283 283 283 282 281 281 282 282 283 283 282 282 282 281 281 281 282 282 283 282 282 282 282 283 282 282 282 282 282 282 282 283 283 284 284 284 285 284 283 283 283 283 283 283 283 283 283 283 284 284 284 284 285 286
288 280 283 288 288 290 290 290 288 289 290 288 284 287 284 279 278 281 277 272 271 272 271 274 280 278 280 280 282 282 281 282 282 282 281 281 282 282 282 282 282 282 282 282 282 282 281 281 282 283 283 283 283 283 283 283 283 282 282 282 282 282 282 282 283 283 284 283 285 285 283 282 283 283 283 282 282 282 282 282 283 283 283 284 284 285
287 279 282 286 289 289 287 285 280 284 289 288 288 285 285 283 280 277 279 275 277 275 277 276 280 276 282 281 283 283 282 282 282 281 281 282 282 282 282 282 282 283 282 282 282 282 283 282 283 283 283 284 284 284 284 284 284 283 283 283 283 282 282 282 282 282 283 284 283 283 282 282 282 282 282 282 282 282 282 282 283 283 283 283 283 284
287 285 276 283 285 287 282 282 281 283 281 281 281 280 283 281 283 283 281 279 277 275 277 277 276 279 282 285 283 284 283 283 283 282 282 283 284 283 283 283 283 283 283 283 283 284 284 285 285 285 285 285 284 284 284 284 283 283 282 282 283 282 282 282 283 283 283 283 283 282 281 281 281 281 281 280 280 280 281 282 282 282 282 282 282 283
281 284 280 279 281 281 282 285 286 287 287 284 281 280 282 280 279 278 276 283 279 279 276 276 276 280 285 287 286 285 285 284 284 284 284 284 284 284 284 284 284 284 285 285 285 286 286 284 284 284 283 284 284 284 284 284 283 283 282 282 282 283 282 281 282 283 283 283 283 281 281 281 281 281 281 280 280 280 280 281 281 281 282 282 282 282
285 281 279 278 281 283 285 287 290 291 289 288 288 285 286 281 282 276 275 276 279 277 275 273 274 276 285 285 285 285 285 285 285 285 285 285 285 285 285 285 286 285 285 285 285 285 285 285 284 284 284 283 283 283 283 283 283 283 282 281 280 281 279 279 280 282 282 282 281 281 280 280 280 280 280 280 279 279 279 279 279 280 280 281 281 282
290 279 277 279 281 283 284 286 287 287 289 287 283 282 282 282 281 277 278 277 275 277 279 277 275 280 286 287 285 285 285 285 285 284 285 286 285 285 286 286 284 283 283 283 283 283 283 282 283 283 283 284 284 284 284 284 283 283 282 281 279 278 278 279 280 281 280 280 280 279 279 279 279 279 279 279 279 279 278 279 279 279 279 280 281 281
281 281 281 277 276 277 279 278 285 285 282 279 280 282 284 283 282 280 283 284 279 281 281 278 273 280 287 284 284 284 284 284 284 285 284 284 284 283 281 281 281 281 281 280 281 280 280 281 281 281 281 281 281 282 281 282 282 282 282 281 281 280 280 279 279 279 279 279 278 278 278 278 278 278 279 279 279 278 278 278 278 278 278 279 279 280
281 278 280 275 273 271 269 269 267 275 276 281 280 281 281 282 281 280 276 278 276 281 280 277 276 284 286 285 283 285 284 283 284 284 283 282 282 281 280 281 280 280 279 279 280 280 280 279 279 279 279 279 279 279 280 279 280 280 280 280 279 279 278 278 278 277 278 277 278 277 276 276 277 278 278 279 279 278 279 279 279 278 278 278 279 279
277 278 278 278 278 276 277 274 279 280 279 276 279 280 281 281 280 281 279 276 275 276 276 278 278 278 280 283 283 282 282 282 284 284 283 282 280 279 279 280 280 279 280 279 279 278 278 279 279 278 277 278 278 278 279 279 279 278 279 278 278 278 278 278 278 278 277 277 277 277 277 277 277 277 277 278 278 278 278 279 278 278 278 278 278 278
279 278 279 277 277 279 278 277 280 282 279 278 276 278 279 277 277 273 273 272 274 271 271 278 277 273 278 281 281 279 281 281 282 282 282 280 279 280 280 279 283 279 278 278 278 278 278 278 278 278 278 278 279 278 278 278 278 279 279 279 279 278 278 280 278 278 277 277 277 277 278 277 277 278 278 278 278 278 278 278 278 278 278 277 277 278
279 275 275 280 278 280 280 280 280 279 279 279 279 278 278 279 275 272 271 277 277 274 273 277 278 275 278 281 282 282 284 283 281 280 280 280 279 279 279 279 279 278 278 278 278 278 278 278 279 279 279 279 278 278 278 278 278 278 278 278 278 278 279 278 278 277 276 276 277 277 277 278 278 279 278 278 278 278 278 278 278 278 277 277 277 278
274 269 275 279 275 279 278 278 280 279 278 279 278 279 279 278 278 277 277 279 278 276 279 279 279 279 281 281 282 284 283 280 280 279 279 279 279 279 278 278 278 278 278 278 279 278 278 278 279 279 279 278 279 278 278 278 278 278 279 280 279 278 279 278 278 277 277 276 276 276 276 276 277 277 277 278 278 278 278 278 278 278 278 277 277 277
278 271 280 275 273 269 273 277 278 278 276 276 278 278 279 279 278 278 278 278 278 277 278 278 277 277 281 281 281 281 280 278 278 279 278 278 279 279 278 278 277 277 277 277 277 277 277 278 278 277 277 278 278 278 279 279 279 279 279 279 279 279 279 278 277 277 276 276 276 276 275 276 277 277 277 278 278 277 277 278 278 278 277 277 277 277
277 271 275 272 270 265 270 274 276 276 275 272 274 276 276 276 274 276 275 277 276 274 276 276 274 275 277 278 279 276 275 276 276 275 276 277 276 276 276 276 275 276 276 277 276 277 277 278 278 278 278 278 278 278 278 278 278 278 278 278 278 279 278 278 277 277 277 276 276 276 276 277 277 277 278 278 278 278 278 277 277 277 277 277 277 277
274 272 271 269 269 268 271 273 273 270 269 268 271 275 277 277 278 278 279 279 279 279 275 272 273 277 278 279 277 276 274 273 274 274 275 275 275 275 275 275 275 275 276 276 277 278 278 278 277 277 277 277 278 277 277 277 277 277 276 276 277 276 277 276 276 276 276 277 276 277 277 277 277 277 277 277 277 277 277 277 277 277 277 276 276 276
274 275 269 270 269 268 269 269 272 269 263 266 274 277 278 276 277 275 276 277 279 279 276 277 276 276 276 278 277 275 273 274 274 275 275 276 276 275 275 275 275 275 276 276 277 277 278 277 277 277 277 277 277 276 276 276 276 276 276 275 275 275 275 275 275 275 275 275 276 276 276 276 276 276 276 276 275 276 275 275 275 275 275 275 275 275
274 274 269 271 268 265 263 263 265 264 266 273 277 278 278 278 277 276 277 278 278 278 274 275 275 276 278 278 278 276 274 275 275 274 275 275 275 276 276 276 276 276 277 277 277 277 276 277 276 276 277 277 276 276 276 276 275 275 275 275 274 275 274 274 274 274 274 274 274 274 274 274 274 273 273 273 274 273 273 273 273 273 274 274 274 274
273 273 270 272 269 270 270 268 262 262 272 275 275 275 277 277 276 276 273 276 276 276 277 275 274 274 275 274 275 275 275 275 275 275 276 277 276 277 275 276 277 276 276 276 276 276 276 276 276 276 276 277 275 275 274 274 274 274 274 274 274 273 273 273 273 273 273 272 273 273 273 272 271 271 271 271 271 270 270 270 271 271 271 272 272 272
278 274 273 270 276 266 268 267 268 270 272 275 274 275 276 275 274 273 268 272 275 275 275 274 274 274 274 274 275 275 275 274 273 275 275 275 277 276 277 277 277 276 276 276 277 277 276 276 276 276 275 274 273 273 273 273 273 272 272 272 272 272 271 271 270 271 271 271 271 271 270 270 269 268 268 268 267 267 268 268 268 268 269 268 269 269
280 276 276 271 267 272 265 265 264 262 263 268 274 277 278 276 276 276 268 264 274 270 273 275 273 273 273 274 274 274 274 271 271 273 276 277 277 278 277 278 277 277 276 276 276 276 275 274 274 274 274 272 272 272 272 272 271 270 270 270 270 269 269 269 269 270 269 269 269 268 268 267 266 265 265 265 265 265 265 265 265 265 267 266 266 266
277 279 274 274 270 272 266 266 265 263 263 265 269 275 277 276 276 273 268 265 270 270 269 273 271 270 272 273 273 273 270 266 268 273 276 275 275 276 277 276 275 275 276 276 275 274 274 274 273 273 272 271 270 271 270 269 268 268 267 267 268 267 267 267 268 267 266 266 266 265 264 264 263 263 263 262 263 262 262 262 263 264 264 264 265 264
271 269 273 271 271 271 269 267 265 266 261 268 271 276 277 275 274 273 263 259 271 273 273 274 273 272 273 274 273 273 270 264 269 274 276 276 277 276 276 276 274 275 275 275 274 274 273 272 272 271 270 269 269 269 268 266 266 265 266 266 267 265 265 266 265 265 265 264 264 263 262 262 262 261 261 261 261 261 261 262 262 262 262 262 262 262
265 265 270 270 271 271 273 269 269 268 274 273 273 275 276 276 274 263 263 266 272 274 274 273 274 274 274 274 273 269 274 276 276 278 277 275 275 275 275 276 274 276 275 274 274 274 272 271 271 270 269 269 269 267 266 265 264 264 264 265 264 263 264 264 264 263 263 262 262 261 261 261 260 260 260 260 260 260 261 261 261 261 260 260 260 260
261 262 261 265 269 269 270 268 269 268 270 272 274 277 277 273 263 265 273 274 275 275 276 275 275 275 274 275 275 276 277 277 277 276 275 275 275 276 275 275 274 274 274 273 273 271 270 269 268 267 267 267 267 266 264 263 262 263 262 262 262 262 263 263 262 262 261 260 260 260 259 259 259 259 259 259 259 259 259 259 260 259 259 260 259 259
267 264 261 266 267 266 263 264 263 261 268 276 275 274 276 269 269 275 274 275 276 276 276 275 276 276 276 276 276 277 277 276 275 275 275 274 274 275 274 274 273 273 271 270 269 269 268 267 266 266 266 266 264 265 264 261 260 260 260 260 261 262 261 262 261 260 259 259 258 258 258 258 258 258 259 258 259 258 258 258 258 258 259 258 258 258
269 261 260 263 269 259 263 262 261 267 275 274 276 270 271 276 275 275 276 275 276 276 276 276 276 277 277 277 277 276 276 276 276 274 274 274 274 274 273 273 272 271 270 269 268 267 265 265 265 265 264 264 263 262 262 260 259 259 259 260 262 262 261 259 259 258 258 257 257 257 257 257 257 258 258 257 258 257 257 257 258 258 258 258 258 258
272 268 268 267 268 266 263 261 267 272 274 275 276 275 275 277 277 277 277 278 276 276 276 276 277 277 277 277 277 277 276 275 276 276 276 275 274 274 273 272 271 270 269 267 266 265 264 264 262 263 262 263 261 261 260 259 258 258 257 260 260 259 259 258 257 257 256 256 256 256 257 257 257 257 257 257 257 257 257 257 257 257 257 258 257 257
271 273 274 272 271 273 272 272 275 274 274 275 277 279 278 278 277 276 276 275 276 278 277 277 278 278 277 276 276 275 276 276 275 274 274 273 274 273 272 270 268 267 266 265 264 264 262 261 260 259 260 260 260 260 260 258 257 256 258 260 259 258 258 257 256 256 256 256 256 256 257 256 256 257 257 257 257 257 257 257 257 256 257 257 257 257
273 275 272 270 272 269 265 274 274 276 276 277 278 277 277 277 278 278 277 277 278 278 277 277 278 278 278 277 276 277 276 276 276 275 274 273 273 271 270 269 267 266 264 262 264 261 261 259 259 259 258 257 259 258 258 256 257 257 258 257 258 258 256 255 256 256 256 256 256 256 256 256 256 257 257 257 257 257 257 257 256 256 256 256 256 256
271 276 272 274 271 271 271 275 274 276 277 278 277 276 276 277 277 277 278 279 278 278 278 278 277 277 277 275 276 277 276 275 275 274 273 273 272 270 269 267 265 264 263 263 261 259 259 259 259 257 257 257 258 258 257 256 256 256 256 256 257 256 255 255 256 256 256 256 256 256 256 256 257 257 256 256 256 256 256 256 256 256 256 256 256 256
274 274 267 271 271 273 274 275 276 277 277 277 276 276 277 278 278 278 278 277 277 276 276 276 277 278 277 277 277 276 274 274 274 275 273 271 269 268 267 265 264 263 262 262 260 259 259 259 257 257 256 257 257 257 255 255 256 255 256 258 256 255 254 255 256 256 255 256 256 256 257 256 256 256 256 256 256 256 256 256 256 256 257 259 259 259
274 272 275 272 268 269 270 274 275 268 270 275 277 277 277 277 277 278 278 277 276 276 276 276 275 275 275 276 276 275 274 274 272 271 271 270 269 266 265 264 262 260 260 260 259 259 258 257 257 256 256 257 257 255 255 255 256 255 257 255 255 255 254 255 256 255 255 256 256 256 256 256 256 256 256 255 255 255 256 259 263 263 260 260 264 267
275 276 274 271 271 270 276 277 278 277 277 278 279 279 277 277 277 277 277 277 278 278 277 276 275 273 272 272 271 273 273 272 270 269 268 266 265 264 263 262 261 260 260 259 258 257 256 257 257 255 255 256 255 254 254 255 255 255 255 256 256 255 255 255 255 256 256 256 256 256 256 256 256 256 256 255 255 255 255 255 257 264 266 266 266 267
Wind_Speed
3 4 5 5 8 10 11 12 12 11 8 7 4 4 6 6 6 4 4 6 1 3 4 7 3 3 6 8 11 15 14 10 8 7 6 2 8 9 9 10 9 10 8 5 8 10 12 14 13 11 11 11 12 14 13 13 14 13 11 12 12 9 11 9 7 6 5 5 3 3 4 1 3 2 3 4 3 4 3 4 3 4 5 5 5 5
3 3 6 10 12 12 12 8 6 5 4 5 5 5 6 3 8 3 5 5 3 0 2 3 4 6 8 9 15 19 10 10 6 6 3 9 8 8 9 8 9 6 4 8 12 13 13 13 12 10 11 12 15 14 14 13 11 11 12 12 10 10 10 10 8 7 7 4 2 2 2 1 3 5 2 1 2 3 4 3 3 3 3 4 4 5
3 7 10 14 13 8 5 4 4 5 6 5 4 2 3 7 3 4 6 2 1 3 6 4 5 8 11 13 18 15 9 4 4 2 6 12 10 8 7 8 8 9 10 12 11 12 12 12 11 10 10 10 10 11 12 11 13 13 11 10 8 9 9 8 9 8 5 5 6 5 4 3 3 3 3 4 3 4 6 4 3 3 3 3 3 3
3 5 15 13 6 5 7 6 6 6 2 4 5 3 7 4 3 6 5 4 4 0 4 4 7 7 7 12 15 11 3 5 8 12 11 9 11 10 9 7 9 10 10 12 12 12 11 11 11 11 12 10 10 11 12 13 13 10 11 10 10 9 9 9 9 7 5 3 4 4 5 5 6 3 3 5 6 6 6 5 3 2 2 2 2 2
11 9 9 6 5 7 8 9 6 3 5 2 3 3 3 4 4 6 5 3 3 5 1 4 4 4 6 11 8 5 6 11 7 12 11 10 9 9 8 11 9 10 9 10 10 11 11 13 13 12 10 10 12 12 11 10 9 8 10 10 9 9 9 8 10 10 7 8 7 6 6 5 4 4 7 6 5 5 3 2 3 2 2 1 1 1
7 8 2 2 3 4 5 6 4 2 4 3 3 7 7 5 6 4 3 4 6 4 3 5 7 2 5 6 9 5 4 6 3 10 9 7 7 7 11 9 8 9 8 9 9 9 9 10 10 11 12 13 11 12 9 7 8 9 10 10 10 9 9 10 10 10 8 8 7 7 7 7 6 6 7 6 3 2 1 1 1 1 1 2 0 0
7 2 3 7 5 4 3 4 3 3 3 2 6 1 3 3 1 1 3 5 2 0 2 4 0 8 1 2 8 5 6 5 3 7 6 7 7 8 8 7 7 8 8 8 8 8 11 10 10 11 12 10 11 10 8 9 10 12 11 10 10 9 9 9 9 11 9 9 8 7 6 6 6 5 4 4 3 2 2 2 1 1 2 1 0 1
2 0 5 3 3 3 1 4 4 7 5 3 1 2 4 3 1 0 2 1 5 1 3 3 6 7 2 5 14 2 8 4 5 4 6 6 7 8 8 8 8 8 7 6 8 8 8 9 9 10 10 10 10 8 8 10 11 13 13 12 12 10 10 10 9 10 9 8 7 8 7 7 7 5 4 6 4 4 2 1 0 0 1 1 0 1
1 1 3 2 1 2 4 6 1 6 7 4 1 5 2 1 1 1 0 2 2 1 7 5 0 1 4 8 3 7 5 3 3 3 4 6 6 7 8 8 8 7 6 6 7 8 8 8 8 7 9 8 9 10 10 9 9 10 11 12 12 13 12 11 12 11 11 9 7 7 6 7 5 5 5 4 6 7 7 4 4 1 1 2 1 1
1 2 5 6 5 5 6 3 4 9 3 2 2 1 2 1 0 1 1 0 2 1 5 6 4 3 7 6 5 1 3 5 4 4 4 4 6 6 7 7 6 5 4 5 5 5 7 7 6 6 5 9 9 8 8 8 9 10 11 13 13 13 11 11 13 12 12 11 10 9 8 8 7 7 7 6 7 6 6 7 7 7 6 3 3 3
1 3 5 3 4 6 4 0 1 2 2 3 3 1 5 5 2 1 2 2 2 2 7 8 6 5 4 6 6 5 3 6 7 4 4 5 6 6 5 5 4 4 4 5 5 6 6 5 6 6 9 7 7 6 7 10 11 11 12 11 11 11 10 11 12 12 13 11 10 9 9 9 8 8 7 8 8 8 8 7 7 6 6 6 6 6
1 1 0 3 1 3 3 2 3 1 1 3 2 2 5 5 4 2 2 3 2 5 6 5 4 8 6 5 6 3 3 13 15 12 11 9 7 6 4 4 4 4 4 5 5 6 6 7 8 7 9 8 8 11 12 11 10 10 9 9 10 12 12 10 11 12 12 11 11 10 10 9 9 8 7 8 7 7 6 6 6 7 6 7 6 7
2 6 3 3 2 7 1 2 2 4 2 4 4 4 2 4 4 2 2 1 4 6 2 1 2 1 9 6 7 8 7 2 3 11 14 12 9 7 5 5 4 3 4 5 5 5 5 6 7 8 7 8 10 9 9 9 8 7 8 9 10 10 10 10 10 11 11 11 11 10 10 9 8 8 8 7 7 6 7 6 7 7 7 7 7 7
5 2 2 4 4 3 6 6 2 0 0 6 4 4 4 0 0 3 5 2 3 5 6 2 2 3 3 6 2 4 4 4 11 12 11 11 10 8 6 4 3 3 4 4 4 4 5 5 4 5 6 6 7 8 8 8 8 7 7 8 9 9 8 8 9 9 10 10 9 9 9 9 8 8 8 8 7 7 6 6 6 6 6 6 6 6
1 4 5 5 3 2 7 8 9 4 6 8 3 9 7 6 2 4 3 4 5 7 3 3 3 5 2 1 3 8 7 9 10 12 10 9 8 7 5 4 3 4 3 3 5 5 4 5 6 8 8 8 7 7 7 7 7 6 7 8 8 9 9 8 8 7 8 8 7 7 7 7 6 6 6 6 6 6 7 7 7 6 6 6 6 6
7 6 4 3 1 5 7 2 4 5 3 2 2 4 4 5 3 4 4 2 3 3 4 2 5 4 2 3 6 6 10 12 10 11 10 9 6 5 5 4 3 2 3 4 4 5 5 5 5 6 5 5 5 6 6 7 8 9 8 8 8 8 8 8 8 7 6 6 5 5 6 7 6 6 5 6 6 6 5 5 5 5 5 5 5 6
1 3 1 3 4 4 2 0 2 3 1 2 4 3 4 3 3 2 4 2 1 1 9 1 5 6 2 8 7 6 12 9 7 8 8 7 4 4 3 2 2 2 2 2 3 3 3 4 4 4 4 4 4 5 5 5 6 6 7 8 9 8 8 9 8 8 7 6 5 6 6 5 6 5 6 6 6 6 6 5 6 6 5 5 6 6
4 6 1 3 1 1 1 0 1 2 3 5 1 6 1 2 2 2 4 1 4 7 6 0 4 4 0 5 3 6 9 4 6 5 5 4 2 4 3 1 3 3 3 2 2 2 4 3 4 4 4 4 4 4 5 6 5 5 5 5 6 7 9 8 8 8 8 8 7 7 7 7 5 5 5 6 7 7 8 8 7 7 8 8 7 6
4 4 3 1 2 2 2 1 3 1 3 2 3 1 1 3 2 2 4 4 3 5 4 2 7 5 6 5 2 3 6 4 4 3 3 3 2 3 2 3 3 3 3 2 3 3 3 4 3 3 4 4 4 4 5 5 6 6 5 5 5 6 5 5 6 6 7 6 5 5 5 5 5 4 4 4 4 4 4 6 6 7 7 7 8 8
2 3 5 2 2 0 2 4 2 2 2 3 2 1 1 2 3 2 4 4 2 7 4 4 5 6 1 3 4 4 6 6 5 4 4 4 3 5 6 5 5 5 4 3 2 3 3 2 2 1 2 3 3 4 4 4 4 5 4 5 5 5 5 5 6 5 5 4 3 4 4 4 4 5 6 5 6 7 6 6 6 6 7 8 7 8
1 2 4 1 3 2 1 1 4 2 1 2 2 1 1 1 3 2 3 3 2 1 3 6 6 3 2 2 4 7 8 9 9 7 6 6 8 8 7 7 6 5 4 2 2 2 2 1 1 1 0 1 1 1 2 2 2 2 3 4 4 4 5 5 5 4 5 4 4 4 4 3 3 4 3 4 4 4 4 5 4 5 4 4 6 6
2 0 6 2 2 2 5 3 3 4 3 1 4 4 5 1 4 6 8 1 1 4 4 4 9 1 1 0 5 9 9 8 7 11 8 9 8 7 6 6 6 3 1 1 1 1 2 1 0 0 1 0 0 0 0 1 1 2 2 2 3 4 4 4 5 4 5 4 4 4 4 4 4 4 4 5 5 6 6 6 7 6 7 6 5 4
3 1 2 5 6 7 5 4 2 1 2 5 4 7 3 2 3 2 7 4 0 3 3 1 2 4 1 2 3 5 6 8 8 8 9 7 7 7 8 5 2 2 2 2 2 1 1 0 1 2 2 2 1 1 1 2 1 1 2 2 2 1 3 3 4 4 4 4 4 4 3 2 3 3 3 3 3 4 4 4 4 5 7 8 9 8
8 2 1 5 5 5 3 2 2 3 1 1 2 1 1 3 2 3 1 1 1 2 4 3 5 2 1 2 3 3 4 5 5 7 7 7 6 7 4 1 3 2 2 2 1 1 2 3 2 1 2 2 1 0 1 2 2 3 3 3 3 4 4 4 4 4 3 3 3 2 2 2 2 1 1 2 1 2 2 3 3 4 5 5 5 7
2 3 7 1 4 6 8 4 4 3 5 1 1 3 1 1 2 1 1 2 2 4 6 5 9 4 2 3 1 1 2 4 5 7 5 5 5 4 3 4 4 3 2 1 2 3 2 1 1 3 3 2 2 2 2 3 3 3 4 4 4 5 5 4 4 3 3 2 2 2 1 2 2 3 4 4 3 3 3 4 3 3 4 4 5 5
4 3 6 4 6 6 7 5 3 1 0 1 1 1 1 2 2 1 1 1 3 1 5 1 4 2 2 4 3 3 4 4 6 6 5 4 4 4 4 4 4 4 3 3 3 1 3 3 3 3 3 3 3 4 4 4 5 5 5 6 5 5 4 4 3 3 2 2 2 3 4 4 4 5 6 7 6 6 6 7 6 5 5 4 6 6
2 0 3 6 8 10 10 2 1 4 1 1 7 5 9 3 3 3 1 2 6 4 8 10 9 7 13 16 7 3 0 5 9 9 6 4 3 3 4 4 4 4 4 4 4 4 2 1 3 4 4 4 4 4 4 4 4 4 3 4 4 3 3 4 2 2 2 3 4 4 5 5 5 5 5 5 5 5 6 7 7 6 7 6 5 7
2 0 4 4 6 7 4 4 2 2 2 4 6 8 7 6 2 2 5 5 4 1 12 8 6 4 10 13 9 2 3 6 7 7 8 4 3 5 5 4 4 3 2 2 1 2 4 5 4 5 5 5 5 5 4 4 4 4 4 4 4 4 4 4 3 4 4 5 5 5 6 6 5 6 6 6 5 5 6 6 6 6 6 5 7 7
4 3 4 4 5 6 4 3 2 1 2 4 7 9 12 10 4 6 4 8 7 8 14 13 11 8 12 13 8 7 10 8 2 2 2 3 5 5 4 3 2 3 3 3 4 4 5 5 5 6 6 7 5 5 5 4 4 4 4 4 5 5 5 4 2 4 4 4 5 5 5 6 6 6 8 9 9 10 9 8 7 7 6 6 7 7
4 2 5 2 4 5 6 3 1 2 3 5 8 11 11 10 9 5 9 9 8 9 10 11 10 15 14 12 8 11 6 2 3 2 3 4 5 5 4 4 4 4 4 4 5 4 4 5 5 6 5 5 5 5 5 5 5 5 5 5 5 4 6 1 3 2 3 3 4 4 4 4 5 6 7 9 10 11 11 11 11 11 11 10 9 8
6 5 5 0 1 4 3 1 1 2 4 6 10 12 12 10 8 10 10 5 8 9 13 13 14 17 11 4 5 2 3 3 4 3 3 4 4 4 4 4 3 2 2 2 1 2 1 1 2 3 4 5 5 5 5 5 5 5 5 5 6 6 5 2 4 2 1 3 4 4 4 4 5 6 8 8 8 8 9 11 11 10 11 11 10 10
3 4 2 1 0 4 1 5 2 2 3 6 12 17 16 11 13 11 8 7 9 11 10 8 9 11 5 2 0 3 4 4 4 3 3 2 3 4 3 2 2 2 1 1 0 1 3 3 4 5 5 4 4 4 4 5 5 5 6 6 6 6 6 7 6 6 6 5 5 5 6 6 7 8 9 8 9 9 9 9 9 10 11 11 11 10
3 4 2 1 1 5 1 5 4 1 5 9 16 20 15 14 11 7 8 8 9 8 7 8 10 6 8 5 5 1 3 1 3 2 1 0 2 3 3 4 3 3 3 1 1 1 1 2 4 4 4 4 4 5 4 4 5 5 3 5 4 4 6 6 5 6 6 6 6 7 7 7 7 8 8 8 8 9 9 10 11 12 11 11 10 8
4 6 4 3 4 3 1 2 1 1 4 14 1 3 8 8 6 9 11 11 12 8 7 6 6 3 2 4 6 6 6 5 3 3 3 3 3 4 4 3 3 4 2 2 3 2 1 3 3 3 3 3 3 3 2 4 4 2 1 3 4 5 6 6 7 6 6 6 6 6 7 8 8 8 9 8 9 10 10 11 11 10 9 9 9 10
5 4 5 2 4 4 1 2 0 7 16 4 2 3 5 7 7 12 11 10 9 7 5 5 3 5 8 7 9 7 5 2 3 3 3 4 4 5 5 5 5 4 3 2 2 1 4 4 3 3 4 3 3 3 4 6 5 4 5 6 7 5 6 6 6 6 6 7 7 7 7 9 9 9 9 10 10 10 11 11 11 12 11 10 12 13
6 7 3 1 4 2 1 3 4 11 5 4 6 2 3 1 6 3 7 7 6 7 7 3 4 5 5 4 3 3 2 2 2 2 4 5 4 5 4 4 4 3 3 4 3 4 5 4 4 4 3 2 4 4 5 5 5 6 6 6 7 8 7 7 7 8 9 9 9 8 8 8 10 10 10 11 11 11 12 12 12 13 12 12 12 12
9 3 4 3 3 7 4 8 12 6 13 15 13 4 4 6 5 6 8 8 4 2 6 5 4 4 4 3 3 1 0 2 2 6 3 3 2 4 5 2 2 3 3 2 7 6 4 4 4 3 2 4 6 6 6 5 6 7 8 8 7 7 6 7 7 8 8 7 8 8 9 9 9 10 11 11 12 12 12 12 12 12 10 12 12 13
7 10 4 6 5 4 4 5 4 2 8 9 3 1 1 4 6 4 8 5 5 4 3 8 8 6 4 2 2 1 2 3 5 5 1 2 3 4 4 3 2 1 5 7 5 5 4 4 3 3 5 5 6 6 5 6 7 6 5 5 6 6 7 6 7 6 6 8 8 9 9 9 9 11 12 11 11 12 12 12 11 11 10 11 13 13
2 5 5 8 2 4 3 7 8 7 8 5 2 4 3 4 7 3 4 7 5 4 4 7 6 5 6 5 3 3 2 1 6 6 7 5 4 4 3 3 2 5 6 7 7 6 4 4 4 5 6 7 7 5 6 6 5 5 4 4 5 4 5 5 5 6 7 8 8 9 8 9 10 10 11 12 12 11 13 13 12 11 11 10 11 13
8 3 6 5 9 8 7 7 10 4 4 3 6 4 5 4 4 8 5 7 2 3 6 8 9 9 7 7 5 6 6 6 7 7 4 7 8 7 5 2 4 5 5 4 4 5 5 4 5 5 6 6 4 3 5 4 3 3 4 4 4 4 4 5 6 7 7 8 8 8 8 8 10 10 10 12 13 12 11 10 10 10 11 12 11 12
3 0 5 13 12 14 16 9 4 5 4 4 6 5 5 1 1 2 13 9 4 6 7 7 9 9 8 7 6 6 8 9 7 8 6 4 3 3 1 1 4 7 8 6 5 5 5 5 5 5 4 4 4 4 4 4 4 4 4 4 4 4 4 5 6 7 7 8 8 8 8 8 7 11 11 10 11 12 11 9 11 11 11 12 11 11
1 3 4 2 10 12 9 10 11 4 6 8 7 9 7 2 3 10 8 4 7 7 7 9 10 8 7 9 8 8 8 8 7 5 5 5 6 1 3 5 7 5 5 5 6 5 5 4 5 4 4 3 4 4 3 3 4 4 4 4 4 4 4 6 6 7 7 7 8 8 8 8 9 8 9 10 10 12 12 10 10 11 11 10 11 13
9 7 7 9 3 0 2 7 3 7 3 10 6 2 2 5 7 7 2 2 4 6 9 8 8 9 9 9 9 9 8 7 6 7 7 5 3 3 6 6 7 8 7 5 4 3 4 4 4 3 3 2 2 3 2 3 4 4 4 4 5 4 5 6 6 6 7 7 8 8 9 9 9 10 8 9 10 11 13 11 11 12 11 12 12 13
3 4 4 5 6 5 6 8 7 6 5 5 9 7 4 8 6 5 5 4 4 5 6 8 8 9 8 9 9 9 9 8 6 5 5 4 3 1 4 5 5 5 5 4 5 4 4 5 3 2 1 1 2 1 1 2 3 4 4 6 4 4 5 5 5 6 7 8 8 9 9 8 8 9 9 10 10 10 11 12 11 11 10 11 11 12
6 10 8 7 3 8 7 5 6 4 5 4 6 5 5 6 5 6 7 7 6 7 7 6 9 9 9 10 9 9 8 8 8 8 6 6 5 6 7 7 7 7 6 6 4 3 3 4 2 1 0 0 1 1 1 1 3 4 5 5 3 5 5 6 6 6 7 8 8 8 8 8 8 9 8 9 8 10 10 11 10 11 10 11 11 11
5 3 2 2 4 2 2 3 0 2 2 2 5 7 8 8 6 5 6 6 6 8 7 9 9 10 9 8 8 7 9 8 8 6 5 4 5 5 5 5 4 5 5 4 3 3 3 2 1 1 0 0 0 0 1 1 3 5 6 4 4 5 5 6 7 8 8 9 8 9 9 10 9 8 8 9 7 9 10 11 11 10 11 9 10 10
6 6 2 4 1 2 5 5 5 7 6 8 11 6 6 7 8 7 7 7 8 8 7 8 9 8 9 8 10 10 9 8 8 7 6 5 7 7 7 7 5 5 4 3 3 3 2 3 3 3 2 2 1 0 1 3 4 4 5 5 6 5 5 6 7 9 9 9 9 9 8 9 9 9 8 9 9 9 9 9 9 10 11 11 11 11
8 5 6 9 7 8 9 5 6 7 10 11 8 6 7 9 10 8 8 8 8 8 8 9 7 8 7 8 10 10 10 9 8 8 6 7 7 7 6 6 6 4 3 4 3 3 2 2 2 3 3 3 2 1 2 4 4 4 5 5 5 5 5 6 6 8 9 10 9 8 8 8 9 10 10 10 9 10 10 9 9 9 11 11 11 12
6 2 4 4 6 7 4 5 10 10 9 11 9 6 8 9 9 9 10 10 9 8 9 8 7 10 9 12 10 9 8 7 8 9 8 6 5 5 5 5 4 4 4 2 1 2 1 1 1 2 3 4 3 3 3 4 5 4 5 5 5 5 5 7 7 8 9 9 8 8 8 8 8 9 10 10 9 9 9 10 10 10 12 12 10 10
2 12 7 0 4 6 7 11 5 2 7 9 10 11 10 10 10 11 10 8 8 9 9 9 9 6 7 8 9 9 10 9 7 6 7 6 6 5 6 5 4 3 2 2 1 0 0 1 1 3 4 4 3 3 4 5 5 4 5 5 5 5 5 7 8 8 8 8 8 8 8 8 9 9 9 9 10 10 11 14 21 16 13 13 21 29
11 12 5 7 8 11 13 15 10 9 10 11 12 9 7 7 8 10 10 11 12 11 9 8 7 4 5 5 3 7 7 7 6 4 4 4 4 5 5 6 4 3 2 1 0 1 1 1 2 3 4 4 3 4 4 6 6 5 6 5 5 5 5 6 7 7 8 8 8 9 9 9 10 9 9 9 9 9 10 11 14 22 25 24 26 27
Wind_Direction
135 122 164 193 217 222 226 212 213 224 219 241 265 278 262 263 281 279 272 270 336 341 242 252 300 297 291 294 286 275 280 301 304 297 304 75 96 87 80 81 74 60 58 34 42 37 32 31 27 20 17 14 19 20 15 19 19 19 21 27 23 9 19 20 19 34 49 44 27 29 36 36 340 15 20 44 37 64 92 125 138 160 162 165 161 156
85 143 227 214 218 223 232 229 231 256 239 224 237 241 269 240 275 255 287 280 349 145 288 319 344 301 284 286 286 281 303 293 307 292 83 93 86 78 79 75 67 74 55 36 35 29 31 29 24 23 23 19 24 13 16 18 14 17 21 27 18 18 21 23 17 21 39 27 65 103 356 12 12 8 17 1 4 54 71 91 122 135 150 161 174 174
169 196 229 224 224 238 266 257 246 240 266 281 255 237 317 271 246 285 273 13 341 13 267 300 321 300 298 289 279 283 293 340 352 84 110 110 95 88 74 74 66 53 42 39 35 30 30 25 24 27 26 26 27 19 20 14 19 18 17 16 17 20 23 20 19 24 23 37 35 56 29 59 71 49 56 57 25 34 49 35 55 91 121 145 166 166
202 273 245 240 226 235 269 265 259 271 291 250 286 291 262 257 25 299 291 337 335 112 281 290 296 290 284 274 273 305 30 73 69 77 66 67 87 81 70 64 71 62 49 44 32 27 22 23 23 23 25 21 24 25 20 17 17 15 11 10 14 17 20 20 14 19 15 60 90 61 65 50 74 65 10 32 23 32 46 40 37 43 91 131 155 165
201 209 221 237 211 192 228 251 263 263 277 279 179 213 248 284 238 194 266 319 304 321 67 358 303 285 240 258 296 63 78 87 78 79 73 68 75 86 85 67 56 65 62 54 41 32 26 25 23 20 19 19 29 24 19 13 15 18 10 6 10 15 17 18 15 14 16 23 24 20 26 32 14 8 19 15 0 14 34 47 49 48 76 87 143 177
257 253 244 208 221 193 207 251 233 154 297 310 238 206 229 230 265 280 328 26 19 335 335 42 343 314 244 252 267 240 78 72 27 80 74 71 67 65 65 65 58 59 50 56 49 43 35 31 21 20 20 25 25 23 12 7 18 25 21 12 9 14 16 18 18 15 23 36 36 35 42 31 25 18 10 355 319 333 344 291 301 2 50 102 76 293
216 270 181 226 236 203 195 227 235 140 198 58 271 200 196 190 162 50 2 43 353 179 282 58 233 274 320 258 264 274 95 77 46 68 82 78 73 71 71 65 59 53 44 37 44 38 40 29 26 23 21 16 24 16 7 14 17 22 27 20 14 12 12 16 21 23 26 32 33 48 59 66 62 51 4 330 325 248 277 346 10 333 339 14 165 316
147 142 82 72 120 142 154 276 248 162 127 237 245 105 86 74 39 73 88 124 237 235 304 283 187 250 302 286 253 99 129 104 75 64 73 76 75 67 66 59 54 48 46 45 39 38 42 40 33 25 14 15 13 3 13 21 20 21 21 21 16 12 11 15 18 29 30 38 30 34 35 43 38 41 21 5 0 359 2 57 335 351 304 308 273 253
161 211 153 145 107 119 197 209 188 141 145 214 237 100 91 111 182 149 125 215 223 14 299 285 108 294 248 254 292 134 121 127 122 116 96 86 81 81 71 66 60 53 49 51 48 40 39 40 34 25 23 10 13 14 17 18 20 24 24 24 20 18 12 9 17 23 27 32 30 35 31 35 20 24 22 11 27 20 4 22 348 25 307 297 303 261
340 178 214 148 129 204 226 242 154 153 187 252 204 82 64 73 144 180 161 77 337 59 272 251 192 209 277 269 342 4 91 166 181 144 115 100 95 86 85 72 69 67 55 41 52 49 43 38 34 27 28 27 19 13 14 19 22 27 29 26 22 17 13 9 13 18 25 25 24 27 22 29 14 12 9 31 25 23 13 20 4 344 340 318 285 273
228 296 176 122 193 211 188 136 128 114 149 107 77 58 356 19 346 35 89 107 54 304 253 233 219 183 284 263 201 144 210 173 144 121 103 107 89 80 74 78 71 67 58 49 41 40 43 36 36 30 40 27 21 17 24 26 26 26 29 26 26 15 12 13 14 17 21 22 23 22 15 18 16 10 22 22 19 13 18 15 356 2 350 7 346 324
339 346 129 253 195 86 100 96 18 88 135 120 62 100 24 334 11 38 348 42 108 268 259 238 205 184 182 281 273 219 103 152 158 165 155 133 110 93 75 59 57 55 52 48 45 35 30 28 28 30 31 23 17 21 22 21 21 23 24 24 28 20 14 13 14 20 21 21 20 17 15 14 9 16 18 22 18 8 11 6 356 345 358 360 359 11
254 215 245 329 289 152 100 77 312 24 13 77 78 44 89 268 38 324 32 322 208 210 246 260 148 91 241 226 248 322 15 195 160 151 144 131 120 102 89 86 69 45 48 48 43 39 34 38 30 28 24 22 23 22 16 17 19 20 23 24 28 20 11 14 16 22 19 24 19 15 11 9 7 12 16 15 14 6 7 358 2 4 359 348 4 0
276 291 287 252 355 197 127 151 248 4 178 108 135 143 96 46 212 241 261 225 298 297 261 205 18 286 255 287 326 96 35 28 95 96 109 118 117 113 107 88 71 60 68 63 57 48 42 38 40 43 37 32 25 20 17 16 21 16 22 21 29 18 13 13 23 23 25 24 21 16 16 10 5 6 7 6 7 359 358 358 3 3 354 353 352 344
329 334 277 159 237 181 162 191 177 173 158 199 140 146 179 153 155 243 209 225 221 217 271 277 31 236 99 250 54 74 64 63 74 90 93 91 96 106 108 92 69 57 31 47 53 46 36 27 36 37 30 24 19 13 16 18 17 18 23 23 23 19 12 17 18 22 27 24 20 20 18 18 10 6 6 6 6 4 4 360 4 359 356 2 344 347
205 216 256 213 251 147 179 223 127 96 62 233 161 89 88 236 151 192 211 180 249 309 316 272 201 193 154 101 84 82 78 70 69 76 83 80 79 79 71 68 79 54 51 36 52 44 33 40 41 43 39 27 18 14 13 17 16 19 14 17 19 19 10 13 14 15 18 14 15 22 25 17 15 12 10 16 14 12 11 3 6 356 358 352 346 346
108 273 276 359 55 155 183 221 186 126 195 242 97 219 207 181 132 287 332 244 107 5 250 169 309 294 309 76 42 55 71 63 62 71 77 78 77 81 98 109 76 71 55 74 77 85 69 54 44 48 41 27 17 15 17 17 20 21 13 15 14 11 10 12 10 6 6 2 13 13 17 12 14 15 19 13 11 10 5 12 6 4 349 351 1 353
176 246 295 98 212 275 198 132 56 43 145 83 144 241 263 128 113 146 219 311 230 223 263 200 244 280 40 283 102 59 73 57 67 75 82 86 100 118 161 163 174 178 181 182 157 124 100 90 57 31 25 21 11 8 10 11 13 24 24 22 15 8 9 358 360 360 2 5 10 9 6 2 3 2 2 8 9 5 10 7 8 1 4 359 348 355
104 321 295 270 156 277 9 50 355 342 38 185 188 239 83 266 325 297 92 263 256 249 273 277 261 256 215 223 100 156 126 122 103 96 104 120 166 166 178 211 224 236 220 188 154 108 86 76 53 38 24 2 8 11 13 10 14 16 16 15 26 9 354 346 346 349 347 358 357 357 353 356 356 0 5 2 0 358 10 9 4 5 356 354 356 356
45 172 291 327 112 224 26 76 233 264 345 31 51 12 212 107 192 231 200 185 190 268 260 267 221 259 27 194 156 162 137 131 125 137 157 190 203 202 199 211 208 214 204 190 153 136 137 139 106 86 57 25 22 33 27 26 23 20 11 18 14 7 6 360 358 350 346 335 335 332 342 352 360 3 7 6 8 9 11 3 4 1 4 1 357 358
241 116 226 281 302 37 281 118 195 164 183 346 40 319 321 245 217 137 301 208 186 210 232 279 263 277 251 208 146 137 145 160 159 164 182 203 206 207 201 197 208 210 200 168 147 141 130 118 96 62 25 21 342 49 40 41 13 353 5 10 14 16 353 352 337 338 329 324 329 340 350 342 348 359 349 8 9 17 4 2 2 0 353 346 3 1
90 126 200 301 6 208 230 232 158 125 130 166 161 215 176 173 296 270 265 139 153 220 242 246 264 284 248 325 159 148 169 163 177 162 188 206 212 209 212 217 206 195 160 149 120 104 71 68 6 284 307 304 69 327 1 309 19 358 335 325 342 356 346 330 324 319 320 323 322 332 326 345 346 355 2 12 11 13 6 4 359 351 355 7 354 6
145 162 108 241 222 222 215 255 275 258 166 178 169 250 195 160 152 169 257 256 33 233 102 177 335 266 250 272 171 165 164 174 183 179 188 208 215 214 221 213 176 156 153 180 153 144 163 211 250 256 271 281 276 277 323 329 324 279 279 292 283 260 282 268 276 290 297 305 310 316 296 311 328 343 353 10 352 6 356 355 354 1 6 355 350 350
64 87 27 296 298 305 330 325 40 34 298 296 7 17 22 232 179 165 197 155 171 300 297 275 247 223 199 249 231 179 191 190 187 195 185 204 218 224 224 153 156 137 171 154 157 165 205 212 240 271 285 292 287 290 285 269 268 266 253 235 225 218 239 246 239 250 257 265 276 270 282 286 279 336 312 342 296 353 321 344 349 356 5 353 347 347
82 266 127 302 308 337 333 354 33 348 50 95 226 276 142 113 109 186 117 261 242 216 228 241 247 227 197 179 252 139 168 192 217 236 220 220 237 222 178 164 165 169 153 172 188 234 252 267 256 239 233 222 233 234 239 239 246 240 245 242 232 234 229 230 228 227 243 223 253 272 273 295 303 348 337 333 316 327 331 342 339 354 351 345 340 327
112 188 121 161 198 248 270 260 251 232 239 264 224 336 294 135 227 49 309 180 211 261 86 191 262 210 176 155 183 209 230 250 239 235 245 228 220 192 170 160 160 150 176 204 235 205 206 223 233 234 233 228 220 211 219 228 227 230 228 232 223 224 240 243 234 233 255 273 295 311 333 327 349 351 344 337 332 335 338 339 338 334 333 332 321 314
156 136 135 175 182 227 239 208 217 96 5 289 283 294 281 264 199 207 142 161 237 250 263 246 246 278 287 281 272 251 172 281 303 301 286 253 203 164 145 143 153 173 188 204 207 218 243 290 260 247 243 222 222 220 220 225 238 241 242 258 256 240 240 250 246 276 321 326 345 342 341 341 341 341 340 333 321 323 332 329 323 323 316 314 309 306
79 250 238 175 216 230 213 226 215 94 212 218 223 253 261 265 221 140 170 225 172 154 263 254 245 226 265 277 280 257 255 270 274 282 293 317 141 148 152 140 166 171 224 226 231 211 211 225 236 234 228 223 225 228 241 244 234 239 248 261 271 277 284 284 302 317 341 350 347 347 338 338 334 340 335 329 324 319 316 312 306 297 290 296 298 296
133 192 272 138 247 248 244 249 346 12 206 214 240 258 263 259 219 221 225 222 215 221 253 264 278 270 261 260 281 294 293 291 221 223 225 155 122 115 122 142 184 232 264 272 250 234 228 233 226 227 223 219 218 224 236 248 259 265 274 255 259 264 261 269 285 313 343 349 344 332 330 333 340 336 338 334 330 326 321 315 306 299 294 289 288 289
85 284 222 157 220 266 264 254 166 198 268 271 263 259 258 260 259 209 228 231 199 229 241 259 265 265 268 276 293 283 279 135 150 127 100 107 136 150 160 191 209 234 242 244 254 262 269 272 277 268 251 233 222 227 240 245 250 249 245 259 260 259 262 263 254 270 307 317 300 304 315 327 325 325 322 324 321 319 318 317 316 315 313 309 302 297
102 269 102 0 159 280 270 108 225 229 244 272 273 267 259 263 270 250 251 243 236 244 249 254 262 267 271 277 245 263 89 97 81 84 123 162 164 172 183 213 238 243 245 242 250 275 282 320 336 330 316 294 284 273 273 287 291 307 306 307 316 320 338 346 275 280 285 298 302 308 316 320 311 311 313 307 310 307 308 307 307 308 306 304 303 302
79 245 59 160 46 298 305 128 224 220 286 271 275 268 260 252 256 254 248 231 236 244 247 249 248 256 277 282 126 58 83 104 127 111 100 130 164 168 183 230 228 249 257 254 283 25 44 34 34 33 23 14 7 10 10 353 353 10 359 357 3 348 358 16 11 6 352 342 339 331 327 317 314 312 307 311 306 304 301 301 301 300 299 299 300 299
161 143 136 117 154 257 265 134 169 43 16 321 260 250 253 250 239 252 252 236 228 239 255 249 245 229 235 210 178 241 123 187 151 171 154 279 238 207 218 219 215 220 230 214 137 162 186 94 85 77 62 60 53 58 46 51 49 36 8 10 343 357 13 5 2 350 342 332 331 325 323 322 318 313 313 314 313 310 310 307 304 302 302 301 301 302
125 144 180 161 171 236 147 107 109 334 281 246 263 139 192 223 229 234 242 243 246 213 216 210 228 230 193 166 177 206 200 205 183 233 178 188 251 263 263 241 227 225 228 205 197 193 126 109 108 96 96 91 87 92 88 66 59 7 338 345 351 10 1 355 347 349 333 331 334 335 333 328 327 326 327 329 325 320 315 314 309 309 310 309 308 302
167 157 191 169 135 225 99 49 241 227 240 265 163 194 180 204 215 227 239 237 241 246 253 270 241 204 217 211 206 203 197 231 206 200 273 238 201 229 240 262 257 228 200 194 227 87 104 125 117 104 66 60 66 50 41 28 16 355 6 4 1 3 358 350 342 340 338 334 336 341 340 342 341 334 329 326 323 321 318 315 313 312 312 311 306 303
182 160 166 231 142 5 199 205 218 235 257 327 278 311 297 172 220 219 283 270 249 233 229 220 233 186 166 158 176 183 168 248 328 262 235 262 206 219 223 235 243 214 216 221 149 131 128 119 110 102 94 81 71 48 43 25 2 7 358 359 3 354 353 350 344 339 342 339 340 344 346 344 332 326 325 323 321 316 312 309 308 308 311 308 303 299
162 133 160 226 208 194 221 201 234 347 324 292 282 258 177 203 212 188 231 266 251 207 137 172 187 181 158 169 145 222 17 35 9 305 280 233 215 204 173 203 200 220 208 130 137 138 141 128 110 115 107 82 63 48 30 15 16 11 2 358 350 349 346 345 337 332 332 332 339 339 339 337 331 326 324 321 315 310 308 310 311 309 312 304 299 297
167 176 209 142 270 153 147 261 303 313 252 265 242 98 66 130 115 121 102 296 282 276 190 161 179 181 170 169 185 222 60 50 333 285 244 233 230 196 231 219 224 181 132 132 122 124 123 119 97 79 83 81 58 43 33 28 24 13 356 339 336 336 332 333 320 328 335 336 336 338 344 341 334 324 320 317 313 312 312 312 307 301 306 300 300 295
209 164 178 201 226 225 192 205 220 233 247 205 217 189 182 152 115 131 57 284 261 210 223 151 157 180 174 168 222 121 88 235 252 254 253 231 247 229 201 243 136 151 146 147 143 134 125 107 100 85 73 64 49 29 40 32 25 6 338 325 323 324 319 316 325 341 338 335 342 341 337 331 326 320 316 314 311 312 309 308 305 303 304 298 298 296
160 180 140 202 223 220 221 229 234 224 242 264 196 198 193 152 87 52 332 272 239 184 170 154 169 182 193 193 167 157 160 206 245 257 234 221 205 215 205 209 127 131 130 116 102 115 115 102 82 66 69 69 45 51 41 29 19 347 316 316 314 315 313 324 344 342 339 335 330 327 323 321 317 313 312 310 307 305 300 301 302 302 304 300 296 293
159 286 194 208 219 226 225 241 285 280 240 190 200 217 210 196 66 262 250 243 224 193 190 171 179 186 179 185 173 181 224 202 212 235 240 230 237 253 222 183 151 154 144 132 121 111 96 87 89 88 83 61 44 48 26 21 6 334 321 314 316 309 324 343 341 336 329 323 317 314 312 309 308 306 303 299 299 300 299 299 298 298 297 294 292 286
346 107 313 276 223 224 225 230 236 262 235 180 242 176 175 100 228 230 241 192 157 206 203 186 191 204 182 192 199 210 230 230 234 253 260 243 217 229 158 137 114 98 97 108 113 107 109 99 93 85 70 54 55 45 24 20 353 320 317 315 306 311 341 338 329 323 317 311 308 304 303 304 301 297 295 298 298 298 297 294 290 290 291 289 289 291
194 148 216 206 209 318 149 242 257 251 268 163 166 38 237 167 227 206 186 253 189 188 190 211 202 220 185 216 216 219 234 246 236 235 235 234 222 184 166 156 153 151 152 141 112 107 121 116 104 106 97 60 73 39 17 22 336 311 307 304 303 331 332 321 318 310 306 304 302 303 302 300 298 297 298 295 295 293 295 296 295 292 291 289 289 287
208 107 232 237 175 166 181 212 205 208 219 197 155 188 224 207 197 171 147 225 233 196 197 206 222 220 208 202 217 230 231 236 251 240 241 250 225 182 143 148 135 127 119 108 123 132 114 106 111 105 97 89 77 44 26 357 320 305 304 298 314 320 315 311 304 304 303 301 300 300 297 295 296 293 292 292 292 291 291 295 295 294 293 291 290 292
205 191 180 206 213 151 200 211 238 219 189 190 169 199 214 236 208 199 185 198 193 224 210 201 222 229 213 209 218 217 229 218 214 207 195 218 190 175 173 173 165 160 155 148 136 124 104 115 118 127 123 131 82 23 10 328 310 302 297 298 323 311 310 306 305 304 301 298 297 296 296 296 294 294 291 289 291 296 299 296 299 298 295 293 291 289
270 235 348 358 253 131 249 182 207 279 237 241 238 218 226 242 249 205 198 215 227 222 193 201 217 222 223 210 212 227 215 211 211 219 206 195 178 181 151 133 126 132 135 131 128 114 111 105 89 82 82 276 168 27 311 301 298 298 289 303 308 305 302 306 308 305 300 299 299 299 300 300 297 289 288 291 296 296 294 294 298 295 294 290 288 289
253 248 177 202 252 43 269 138 183 239 261 262 255 230 224 227 233 218 215 218 232 235 229 221 216 221 228 218 211 210 215 212 213 216 202 178 180 178 174 168 162 156 150 125 128 116 64 41 2 347 339 320 277 300 291 290 278 269 287 295 297 301 304 303 301 300 302 303 304 300 300 299 300 302 305 310 303 294 289 291 289 291 292 290 290 289
284 195 206 231 239 217 244 241 232 228 232 243 236 233 236 237 240 241 229 229 230 234 229 230 217 232 221 219 212 210 218 209 203 214 201 192 188 179 170 164 157 126 108 119 111 85 65 30 340 310 313 303 296 302 288 286 282 279 282 286 292 296 299 297 298 302 305 304 301 300 301 298 296 304 309 301 296 295 294 288 288 288 288 291 291 291
219 133 227 172 204 249 293 276 254 259 271 268 257 232 228 228 229 238 238 238 240 243 246 242 213 216 202 215 208 206 212 219 208 207 202 190 172 170 167 150 137 135 134 101 82 66 17 296 293 281 294 293 296 294 292 286 286 285 287 290 293 293 298 298 302 300 299 298 299 298 297 295 304 306 299 295 290 281 281 287 288 284 281 278 273 274
179 243 224 300 276 246 233 243 208 217 253 252 253 240 232 229 228 237 242 244 244 247 242 236 236 230 218 211 195 192 204 217 212 186 197 188 180 158 140 134 132 128 122 120 106 60 230 217 238 288 290 289 291 289 292 290 289 287 284 285 282 286 295 302 304 303 300 301 301 301 302 304 306 301 294 290 291 293 291 286 294 294 294 293 294 295
221 236 185 203 223 248 246 248 234 229 249 249 252 252 238 235 225 229 237 242 244 237 231 224 232 243 238 239 214 189 203 196 206 173 169 162 156 143 139 141 143 141 156 158 323 277 214 248 272 279 285 284 289 294 291 293 293 293 289 282 285 288 290 294 301 300 300 305 305 304 306 308 304 297 292 289 291 291 294 300 301 301 300 299 300 300